Lake Eufaula Weather Center

Moon Phase Calendar



Lake Eufaula Water Level
Online Cameras

 


      

Current Conditions in Georgetown
4/17/2021 10:51:39 PM

63°F
Feels Like 63
Clear
Humidity
94%
Pressure
29.88"
Wind
5.4 mph (WSW)
Dew Point
61°F
UV Index
0/10 (Low)
Visibility
6 mi

Hourly Forecast

Date & Time Sat, Apr 17
10:00 PM
Sat, Apr 17
11:00 PM
Sun, Apr 18
12:00 AM
Sun, Apr 18
1:00 AM
Sun, Apr 18
2:00 AM
Sun, Apr 18
3:00 AM
Sun, Apr 18
4:00 AM
Sun, Apr 18
5:00 AM
Sun, Apr 18
6:00 AM
Sun, Apr 18
7:00 AM
Sun, Apr 18
8:00 AM
Sun, Apr 18
9:00 AM
Sun, Apr 18
10:00 AM
Sun, Apr 18
11:00 AM
Sun, Apr 18
12:00 PM
Sun, Apr 18
1:00 PM
Sun, Apr 18
2:00 PM
Sun, Apr 18
3:00 PM
Sun, Apr 18
4:00 PM
Sun, Apr 18
5:00 PM
Sun, Apr 18
6:00 PM
Sun, Apr 18
7:00 PM
Sun, Apr 18
8:00 PM
Sun, Apr 18
9:00 PM
Sun, Apr 18
10:00 PM
Sun, Apr 18
11:00 PM
Mon, Apr 19
12:00 AM
Mon, Apr 19
1:00 AM
Mon, Apr 19
2:00 AM
Mon, Apr 19
3:00 AM
Mon, Apr 19
4:00 AM
Mon, Apr 19
5:00 AM
Mon, Apr 19
6:00 AM
Mon, Apr 19
7:00 AM
Mon, Apr 19
8:00 AM
Mon, Apr 19
9:00 AM
Mon, Apr 19
10:00 AM
Mon, Apr 19
11:00 AM
Mon, Apr 19
12:00 PM
Mon, Apr 19
1:00 PM
Mon, Apr 19
2:00 PM
Mon, Apr 19
3:00 PM
Mon, Apr 19
4:00 PM
Mon, Apr 19
5:00 PM
Mon, Apr 19
6:00 PM
Mon, Apr 19
7:00 PM
Mon, Apr 19
8:00 PM
Mon, Apr 19
9:00 PM
Condition
Clouds

Clear

Clouds

Rain

Rain

Clouds

Clouds

Clouds

Clouds

Clouds

Clouds

Clouds

Clouds

Clouds

Clouds

Clouds

Clouds

Clear

Clouds

Clouds

Clouds

Clouds

Clouds

Clouds

Clouds

Clouds

Clouds

Clouds

Clouds

Clear

Clouds

Clouds

Clouds

Clouds

Clouds

Clear

Clear

Clear

Clear

Clear

Clear

Clear

Clear

Clear

Clear

Clear

Clouds

Clouds
Temperature 63°F63°F63°F62°F62°F61°F60°F59°F58°F57°F57°F59°F62°F66°F69°F72°F73°F74°F75°F74°F73°F70°F64°F61°F60°F59°F58°F57°F56°F55°F54°F52°F51°F51°F52°F57°F61°F65°F67°F70°F72°F73°F73°F73°F72°F70°F64°F62°F
Feels Like 63°F63°F63°F62°F62°F61°F60°F59°F58°F57°F57°F58°F61°F65°F68°F71°F72°F74°F74°F73°F72°F69°F63°F60°F59°F58°F57°F56°F55°F54°F53°F51°F50°F49°F51°F55°F59°F63°F66°F68°F70°F71°F72°F72°F71°F69°F62°F60°F
Cloudiness 21%1%21%41%60%80%100%100%100%100%100%88%82%67%65%53%45%8%41%53%63%69%74%99%81%78%78%75%71%3%50%56%50%40%34%0%0%0%0%0%0%0%0%0%0%0%16%100%
Visibility 6 mi6 mi6 mi6 mi6 mi6 mi6 mi6 mi6 mi6 mi6 mi6 mi6 mi6 mi6 mi6 mi6 mi6 mi6 mi6 mi6 mi6 mi6 mi6 mi6 mi6 mi6 mi6 mi6 mi6 mi6 mi6 mi6 mi6 mi6 mi6 mi6 mi6 mi6 mi6 mi6 mi6 mi6 mi6 mi6 mi6 mi6 mi6 mi
Precipitation 39%36%53%61%63%35%29%29%29%29%29%2%0%0%0%0%0%0%0%0%0%0%0%0%0%0%0%0%0%0%0%0%0%0%0%0%0%0%0%0%0%0%0%0%0%0%0%0%
Humidity 93%94%93%94%94%94%93%92%92%92%89%80%70%57%50%45%43%40%39%39%41%50%63%64%65%66%68%71%74%75%74%78%80%81%78%64%54%46%41%36%33%31%30%30%32%45%53%51%
Dew Point 61°F61°F60°F60°F60°F59°F58°F57°F56°F55°F54°F53°F52°F51°F50°F50°F49°F49°F48°F48°F48°F51°F51°F49°F48°F48°F48°F48°F48°F47°F46°F46°F45°F45°F45°F45°F44°F43°F43°F42°F41°F41°F40°F41°F41°F48°F46°F44°F
Pressure 29.88"29.88"29.88"29.88"29.88"29.88"29.91"29.88"29.91"29.91"29.94"29.94"29.94"29.97"29.94"29.94"29.91"29.88"29.85"29.85"29.88"29.88"29.88"29.91"29.94"29.94"29.94"29.94"29.94"29.94"29.94"29.97"29.97"29.97"30"30.03"30.03"30.03"30"30"29.97"29.97"29.94"29.94"29.94"29.94"29.94"29.97"
Wind Speed 5.1 mph5.4 mph6.7 mph6.1 mph2.8 mph3.4 mph2.7 mph2.2 mph3.7 mph4 mph4 mph3.5 mph5.2 mph4.5 mph5.2 mph5.9 mph6.8 mph8.6 mph9.2 mph9.2 mph8.9 mph7.7 mph5.9 mph6.3 mph6 mph6.6 mph6.4 mph6.8 mph7 mph7.4 mph7.1 mph5.3 mph5.6 mph5.9 mph5.1 mph7.2 mph7.1 mph6.4 mph6.5 mph6.5 mph6.9 mph6.8 mph7 mph6.4 mph6 mph4 mph3.5 mph3.4 mph
Wind
Direction
258°
WSW
252°
WSW
250°
WSW
266°
W
288°
WNW
266°
W
277°
W
305°
NW
311°
NW
350°
N
341°
NNW
334°
NNW
355°
N
335°
NNW
318°
NW
292°
WNW
280°
W
272°
W
280°
W
284°
WNW
286°
WNW
289°
WNW
294°
WNW
286°
WNW
289°
WNW
297°
WNW
304°
NW
313°
NW
318°
NW
327°
NNW
344°
NNW
338°
NNW
341°
NNW
337°
NNW
338°
NNW
346°
NNW
347°
NNW
340°
NNW
327°
NNW
318°
NW
315°
NW
315°
NW
320°
NW
325°
NW
321°
NW
326°
NW
327°
NNW
329°
NNW

Daily Forecast

Date High Low Precip. Humidity
Today
Apr 17

Rain
73 °F
55 °F
58%
60%
Sunday
Apr 18

Rain
75 °F
57 °F
63%
45%
Monday
Apr 19

Clear
73 °F
51 °F
0%
36%
Tuesday
Apr 20

Clouds
76 °F
57 °F
0%
35%
Wednesday
Apr 21

Clear
70 °F
51 °F
0%
47%
Thursday
Apr 22

Clouds
68 °F
43 °F
0%
26%
Friday
Apr 23

Clouds
73 °F
49 °F
0%
33%
Saturday
Apr 24

Rain
70 °F
56 °F
85%
85%
Sunday
Apr 25

Clear
68 °F
51 °F
0%
28%
Monday
Apr 26

Clear
69 °F
44 °F
0%
24%
Tuesday
Apr 27

Clear
76 °F
50 °F
0%
33%
Wednesday
Apr 28

Clouds
80 °F
60 °F
0%
58%
Thursday
Apr 29

Clear
87 °F
62 °F
0%
42%
Friday
Apr 30

Clear
88 °F
62 °F
0%
40%
Saturday
May 1

Clear
89 °F
63 °F
0%
38%
Sunday
May 2

Clouds
89 °F
64 °F
0%
37%

Temperature 8-14 Day Outlook



Precipitation 8-14 Day Outlook




Quick Links
Lake Eufaula News
Lake Eufaula Photos
Lake Eufaula Videos




About Us
Contact Us
Site Map
Search Site
Advertise With Us
   
www.LakeEufaula.info
THE LAKE EUFAULA WEBSITE

Copyright 2021, Lakes Online
Privacy    |    Legal